Clinton, OK

2:33 AM CDT on July 26, 2016 (GMT -0500)
Clinton Municipal

Weather History for KCLK - November, 2013

Change the Weather History Date:

Friday, November 22, 2013

  Actual Average (KCSM) Record (KCSM)
Temperature  
Mean Temperature 28 °F -  
Max Temperature 30 °F 55 °F 78 °F (2012)
Min Temperature 26 °F 35 °F 24 °F (2007)
Degree Days  
Heating Degree Days 37    
Moisture  
Dew Point 20 °F    
Average Humidity 71    
Maximum Humidity 80    
Minimum Humidity 64    
Precipitation  
Precipitation 0.02 in - - ()
Sea Level Pressure  
Sea Level Pressure 30.54 in    
Wind  
Wind Speed 21 mph (North)    
Max Wind Speed 29 mph    
Max Gust Speed 38 mph    
Visibility 10 miles    
Events      
Averages and records for this station are not official NWS values.
T = Trace of Precipitation, MM = Missing Value Source: NWS Daily Summary

Daily Weather History Graph

Daily Weather History Graph

Search for Another Location

Airport or City:

Trip Planner

Search our weather history database for the weather conditions in past years. The results will help you decide how hot, cold, wet, or windy it might be!

Date:

Astronomy

Nov. 22, 2013 Rise Set
Actual Time 7:18 AM CST 5:25 PM CST
Civil Twilight 6:50 AM CST 5:52 PM CST
Nautical Twilight 6:19 AM CST 6:23 PM CST
Astronomical Twilight 5:49 AM CST 6:54 PM CST
Moon 9:56 PM CST (11/22) 11:04 AM CST (11/22)
Length of Visible Light 11h 01m
Length of Day
10h 06m
Waning Gibbous, 78% of the Moon is Illuminated
Nov 22
Waning Gibbous
Nov 25
Last Quarter
Dec 2
New
Dec 9
First Quarter
Dec 17
Full

Hourly Weather History & Observations

Time (CST) Temp. Windchill Dew Point Humidity Pressure Visibility Wind Dir Wind Speed Gust Speed Precip Events Conditions
12:15 AM 30.2 °F 16.5 °F 19.4 °F 64% 30.46 in 10.0 mi North 24.2 mph 33.4 mph N/A   Overcast
12:35 AM 30.2 °F 17.1 °F 19.4 °F 64% 30.47 in 10.0 mi North 21.9 mph 31.1 mph N/A   Overcast
12:55 AM 28.4 °F 14.4 °F 19.4 °F 69% 30.47 in 10.0 mi North 23.0 mph 33.4 mph N/A   Overcast
1:15 AM 28.4 °F 14.4 °F 19.4 °F 69% 30.47 in 10.0 mi North 23.0 mph 27.6 mph N/A   Overcast
1:35 AM 28.4 °F 13.5 °F 19.4 °F 69% 30.47 in 10.0 mi North 26.5 mph 34.5 mph N/A   Overcast
1:55 AM 28.4 °F 13.3 °F 19.4 °F 69% 30.46 in 10.0 mi North 27.6 mph 32.2 mph N/A   Overcast
2:15 AM 28.4 °F 14.7 °F 19.4 °F 69% 30.48 in 10.0 mi North 21.9 mph 29.9 mph N/A   Overcast
2:35 AM 28.4 °F 14.4 °F 19.4 °F 69% 30.49 in 10.0 mi North 23.0 mph 28.8 mph N/A   Overcast
2:55 AM 26.6 °F 12.4 °F 17.6 °F 69% 30.50 in 10.0 mi North 21.9 mph 31.1 mph N/A   Overcast
3:15 AM 26.6 °F 10.8 °F 17.6 °F 69% 30.48 in 10.0 mi North 27.6 mph 33.4 mph N/A   Overcast
3:35 AM 26.6 °F 11.4 °F 17.6 °F 69% 30.49 in 10.0 mi North 25.3 mph 28.8 mph N/A   Overcast
3:55 AM 26.6 °F 10.6 °F 17.6 °F 69% 30.49 in 10.0 mi North 28.8 mph 35.7 mph N/A   Overcast
4:35 AM 26.6 °F 12.7 °F 17.6 °F 69% 30.50 in 10.0 mi North 20.7 mph 29.9 mph N/A   Overcast
4:55 AM 26.6 °F 12.4 °F 17.6 °F 69% 30.49 in 10.0 mi North 21.9 mph 35.7 mph N/A   Overcast
5:15 AM 26.6 °F 10.6 °F 17.6 °F 69% 30.49 in 10.0 mi North 28.8 mph 33.4 mph N/A   Overcast
5:35 AM 26.6 °F 11.7 °F 17.6 °F 69% 30.48 in 10.0 mi North 24.2 mph 35.7 mph N/A   Overcast
5:55 AM 26.6 °F 11.7 °F 17.6 °F 69% 30.49 in 10.0 mi North 24.2 mph 38.0 mph N/A   Overcast
6:15 AM 26.6 °F 12.0 °F 17.6 °F 69% 30.50 in 10.0 mi North 23.0 mph 34.5 mph N/A   Overcast
6:35 AM 26.6 °F 12.0 °F 17.6 °F 69% 30.50 in 10.0 mi North 23.0 mph 29.9 mph N/A   Overcast
6:55 AM 26.6 °F 13.8 °F 17.6 °F 69% 30.52 in 10.0 mi North 17.3 mph 28.8 mph N/A   Overcast
7:15 AM 26.6 °F 13.4 °F 17.6 °F 69% 30.56 in 10.0 mi North 18.4 mph - N/A   Overcast
7:35 AM 26.6 °F 12.7 °F 17.6 °F 69% 30.55 in 10.0 mi North 20.7 mph - N/A   Overcast
7:55 AM 26.6 °F 13.8 °F 17.6 °F 69% 30.57 in 10.0 mi North 17.3 mph 25.3 mph N/A   Overcast
8:15 AM 26.6 °F 11.7 °F 17.6 °F 69% 30.56 in 10.0 mi North 24.2 mph - N/A   Overcast
8:35 AM 28.4 °F 14.7 °F 17.6 °F 64% 30.56 in 10.0 mi North 21.9 mph 28.8 mph N/A   Overcast
8:55 AM 28.4 °F 14.1 °F 17.6 °F 64% 30.55 in 10.0 mi North 24.2 mph - N/A   Overcast
9:15 AM 28.4 °F 13.8 °F 17.6 °F 64% 30.56 in 10.0 mi North 25.3 mph 29.9 mph N/A   Overcast
9:35 AM 28.4 °F 14.7 °F 17.6 °F 64% 30.57 in 10.0 mi North 21.9 mph 29.9 mph N/A   Overcast
9:55 AM 28.4 °F 13.5 °F 17.6 °F 64% 30.56 in 10.0 mi North 26.5 mph 32.2 mph N/A   Overcast
10:15 AM 28.4 °F 14.1 °F 17.6 °F 64% 30.59 in 10.0 mi North 24.2 mph 27.6 mph N/A   Overcast
10:35 AM 28.4 °F 15.8 °F 17.6 °F 64% 30.61 in 10.0 mi North 18.4 mph 28.8 mph N/A   Overcast
10:55 AM 28.4 °F 15.1 °F 19.4 °F 69% 30.61 in 5.0 mi North 20.7 mph 25.3 mph N/A   Overcast
11:15 AM 28.4 °F 15.1 °F 19.4 °F 69% 30.60 in 10.0 mi North 20.7 mph 26.5 mph N/A   Overcast
11:35 AM 28.4 °F 15.4 °F 21.2 °F 74% 30.61 in 10.0 mi North 19.6 mph 25.3 mph N/A   Overcast
11:55 AM 28.4 °F 14.7 °F 21.2 °F 74% 30.59 in 7.0 mi North 21.9 mph - N/A   Overcast
12:15 PM 28.4 °F 16.2 °F 21.2 °F 74% 30.59 in 7.0 mi North 17.3 mph 23.0 mph N/A   Overcast
12:35 PM 30.2 °F 18.5 °F 23.0 °F 75% 30.58 in 5.0 mi North 17.3 mph 23.0 mph N/A   Overcast
12:55 PM 28.4 °F 15.4 °F 23.0 °F 80% 30.57 in 7.0 mi North 19.6 mph - 0.01 in   Overcast
1:15 PM 28.4 °F 16.2 °F 23.0 °F 80% 30.55 in 7.0 mi North 17.3 mph 26.5 mph N/A   Overcast
1:35 PM 28.4 °F 16.2 °F 23.0 °F 80% 30.55 in 10.0 mi North 17.3 mph 25.3 mph N/A   Overcast
1:55 PM 28.4 °F 15.1 °F 23.0 °F 80% 30.53 in 10.0 mi North 20.7 mph 26.5 mph N/A   Overcast
2:15 PM 28.4 °F 15.4 °F 23.0 °F 80% 30.54 in 10.0 mi North 19.6 mph 25.3 mph N/A   Overcast
2:35 PM 28.4 °F 16.2 °F 23.0 °F 80% 30.53 in 5.0 mi North 17.3 mph 25.3 mph N/A   Overcast
2:55 PM 28.4 °F 16.2 °F 23.0 °F 80% 30.53 in 4.0 mi North 17.3 mph 24.2 mph 0.01 in   Overcast
3:15 PM 28.4 °F 16.6 °F 23.0 °F 80% 30.54 in 7.0 mi North 16.1 mph 21.9 mph N/A   Overcast
3:35 PM 28.4 °F 15.8 °F 23.0 °F 80% 30.54 in 10.0 mi North 18.4 mph - N/A   Overcast
3:55 PM 28.4 °F 16.6 °F 23.0 °F 80% 30.55 in 10.0 mi North 16.1 mph 19.6 mph N/A   Overcast
4:15 PM 28.4 °F 16.6 °F 23.0 °F 80% 30.56 in 10.0 mi North 16.1 mph 19.6 mph N/A   Overcast
4:35 PM 28.4 °F 15.8 °F 23.0 °F 80% 30.55 in 10.0 mi North 18.4 mph - N/A   Overcast
4:55 PM 28.4 °F 16.6 °F 23.0 °F 80% 30.55 in 10.0 mi North 16.1 mph - N/A   Overcast
5:15 PM 28.4 °F 15.8 °F 23.0 °F 80% 30.53 in 10.0 mi North 18.4 mph 24.2 mph N/A   Overcast
5:35 PM 28.4 °F 15.8 °F 23.0 °F 80% 30.53 in 10.0 mi North 18.4 mph - N/A   Overcast
5:55 PM 28.4 °F 16.2 °F 23.0 °F 80% 30.53 in 10.0 mi North 17.3 mph 21.9 mph N/A   Overcast
6:15 PM 28.4 °F 16.2 °F 23.0 °F 80% 30.53 in 10.0 mi North 17.3 mph - N/A   Overcast
6:35 PM 28.4 °F 16.6 °F 21.2 °F 74% 30.54 in 10.0 mi North 16.1 mph 21.9 mph N/A   Overcast
6:55 PM 28.4 °F 17.5 °F 23.0 °F 80% 30.55 in 10.0 mi North 13.8 mph - N/A   Overcast
7:15 PM 28.4 °F 18.0 °F 21.2 °F 74% 30.55 in 10.0 mi North 12.7 mph - N/A   Overcast
7:35 PM 28.4 °F 17.0 °F 21.2 °F 74% 30.55 in 10.0 mi North 15.0 mph - N/A   Overcast
7:55 PM 30.2 °F 21.3 °F 21.2 °F 69% 30.56 in 10.0 mi North 10.4 mph - N/A   Overcast
8:15 PM 30.2 °F 21.3 °F 21.2 °F 69% 30.56 in 10.0 mi North 10.4 mph - N/A   Overcast
8:35 PM 30.2 °F 20.8 °F 19.4 °F 64% 30.56 in 10.0 mi North 11.5 mph - N/A   Overcast
8:55 PM 30.2 °F 21.3 °F 19.4 °F 64% 30.56 in 10.0 mi North 10.4 mph - N/A   Overcast
9:15 PM 30.2 °F 21.9 °F 19.4 °F 64% 30.56 in 10.0 mi North 9.2 mph - N/A   Overcast
9:35 PM 30.2 °F 20.8 °F 19.4 °F 64% 30.56 in 10.0 mi North 11.5 mph - N/A   Overcast
9:55 PM 30.2 °F 21.3 °F 21.2 °F 69% 30.57 in 10.0 mi North 10.4 mph - N/A   Overcast
10:15 PM 30.2 °F 20.2 °F 19.4 °F 64% 30.58 in 10.0 mi North 12.7 mph 17.3 mph N/A   Overcast
10:35 PM 30.2 °F 19.8 °F 19.4 °F 64% 30.58 in 10.0 mi North 13.8 mph - N/A   Overcast
10:55 PM 30.2 °F 19.8 °F 19.4 °F 64% 30.58 in 10.0 mi North 13.8 mph - N/A   Overcast
11:15 PM 30.2 °F 19.3 °F 19.4 °F 64% 30.58 in 10.0 mi North 15.0 mph 21.9 mph N/A   Overcast
11:35 PM 30.2 °F 19.8 °F 19.4 °F 64% 30.58 in 10.0 mi North 13.8 mph 20.7 mph N/A   Overcast
11:55 PM 30.2 °F 19.3 °F 19.4 °F 64% 30.58 in 10.0 mi North 15.0 mph 19.6 mph N/A   Overcast